Time,TemperatureF,DewpointF,PressureIn,WindDirection,WindDirectionDegrees,WindSpeedMPH,WindSpeedGustMPH,Humidity,HourlyPrecipIn,Conditions,Clouds,dailyrainin,SoftwareType,DateUTC
2013-05-24 00:03:00,41.0,34.0,30.26,North,355,2.0,10.0,77,0.00,,,0.38,,2013-05-24 04:03:00,
2013-05-24 00:12:00,41.0,34.0,30.26,North,355,2.0,10.0,77,0.00,,,0.38,,2013-05-24 04:12:00,
2013-05-24 00:23:00,41.0,34.0,30.26,North,355,2.0,10.0,77,0.00,,,0.38,,2013-05-24 04:23:00,
2013-05-24 00:33:00,40.0,33.0,30.26,North,352,7.0,9.0,77,0.00,,,0.37,,2013-05-24 04:33:00,
2013-05-24 00:42:00,40.0,33.0,30.26,North,352,7.0,9.0,77,0.00,,,0.37,,2013-05-24 04:42:00,
2013-05-24 00:53:00,40.0,34.0,30.26,North,5,6.0,10.0,78,0.00,,,0.37,,2013-05-24 04:53:00,
2013-05-24 01:02:00,40.0,34.0,30.27,North,0,3.0,8.0,79,0.00,,,0.36,,2013-05-24 05:02:00,
2013-05-24 01:12:00,40.0,34.0,30.27,North,0,3.0,8.0,79,0.00,,,0.36,,2013-05-24 05:12:00,
2013-05-24 01:22:00,40.0,34.0,30.27,North,0,3.0,6.0,80,0.00,,,0.36,,2013-05-24 05:22:00,
2013-05-24 01:32:00,39.0,33.0,30.27,North,0,3.0,5.0,80,0.00,,,0.36,,2013-05-24 05:32:00,
2013-05-24 01:42:00,39.0,33.0,30.27,North,0,3.0,5.0,80,0.00,,,0.36,,2013-05-24 05:42:00,
2013-05-24 01:52:00,39.0,34.0,30.28,North,0,4.0,7.0,81,0.00,,,0.35,,2013-05-24 05:52:00,
2013-05-24 02:02:00,39.0,34.0,30.27,North,0,4.0,5.0,81,0.00,,,0.35,,2013-05-24 06:02:00,
2013-05-24 02:12:00,39.0,34.0,30.27,North,0,4.0,5.0,81,0.00,,,0.35,,2013-05-24 06:12:00,
2013-05-24 02:21:00,38.0,33.0,30.28,North,0,3.0,6.0,81,0.00,,,0.34,,2013-05-24 06:21:00,
2013-05-24 02:32:00,38.0,33.0,30.28,North,1,2.0,6.0,81,0.00,,,0.34,,2013-05-24 06:32:00,
2013-05-24 02:42:00,38.0,33.0,30.28,North,1,2.0,6.0,81,0.00,,,0.34,,2013-05-24 06:42:00,
2013-05-24 02:52:00,38.0,33.0,30.29,North,0,4.0,6.0,82,0.00,,,0.33,,2013-05-24 06:52:00,
2013-05-24 03:02:00,38.0,33.0,30.29,North,9,3.0,7.0,81,0.00,,,0.33,,2013-05-24 07:02:00,
2013-05-24 03:11:00,38.0,33.0,30.29,North,9,3.0,7.0,81,0.00,,,0.33,,2013-05-24 07:11:00,
2013-05-24 03:22:00,37.0,32.0,30.29,North,0,2.0,6.0,81,0.00,,,0.32,,2013-05-24 07:22:00,
2013-05-24 03:32:00,36.0,31.0,30.29,North,0,1.0,4.0,83,0.00,,,0.32,,2013-05-24 07:32:00,
2013-05-24 03:42:00,36.0,31.0,30.29,North,0,1.0,4.0,83,0.00,,,0.32,,2013-05-24 07:42:00,
2013-05-24 03:52:00,35.0,31.0,30.29,North,0,3.0,4.0,85,0.00,,,0.31,,2013-05-24 07:52:00,
2013-05-24 04:02:00,36.0,32.0,30.30,North,0,4.0,6.0,85,0.00,,,0.30,,2013-05-24 08:02:00,
2013-05-24 04:11:00,36.0,32.0,30.30,North,0,4.0,6.0,85,0.00,,,0.30,,2013-05-24 08:11:00,
2013-05-24 04:22:00,36.0,32.0,30.30,North,0,3.0,5.0,84,0.00,,,0.30,,2013-05-24 08:22:00,
2013-05-24 04:33:00,36.0,32.0,30.31,North,0,3.0,6.0,84,0.00,,,0.30,,2013-05-24 08:33:00,
2013-05-24 04:42:00,36.0,32.0,30.31,North,0,3.0,6.0,84,0.00,,,0.30,,2013-05-24 08:42:00,
2013-05-24 04:52:00,36.0,32.0,30.31,North,0,3.0,5.0,84,0.00,,,0.29,,2013-05-24 08:52:00,
2013-05-24 05:02:00,35.0,31.0,30.31,North,0,2.0,4.0,85,0.00,,,0.28,,2013-05-24 09:02:00,
2013-05-24 05:11:00,35.0,31.0,30.31,North,0,2.0,4.0,85,0.00,,,0.28,,2013-05-24 09:11:00,
2013-05-24 05:22:00,35.0,31.0,30.32,North,356,4.0,6.0,84,0.00,,,0.28,,2013-05-24 09:22:00,
2013-05-24 05:32:00,35.0,31.0,30.33,North,10,2.0,5.0,84,0.00,,,0.27,,2013-05-24 09:32:00,
2013-05-24 05:40:00,35.0,30.0,30.33,North,11,1.0,4.0,82,0.00,,,0.26,,2013-05-24 09:40:00,
2013-05-24 05:42:00,35.0,31.0,30.33,North,10,2.0,5.0,84,0.00,,,0.27,,2013-05-24 09:42:00,
2013-05-24 05:53:00,35.0,30.0,30.32,North,11,4.0,6.0,82,0.00,,,0.26,,2013-05-24 09:53:00,
2013-05-24 06:03:00,35.0,30.0,30.33,North,11,1.0,4.0,82,0.00,,,0.26,,2013-05-24 10:03:00,
2013-05-24 06:12:00,35.0,30.0,30.33,North,11,1.0,4.0,82,0.00,,,0.26,,2013-05-24 10:12:00,
2013-05-24 06:22:00,35.0,30.0,30.33,North,11,1.0,4.0,82,0.00,,,0.26,,2013-05-24 10:22:00,
2013-05-24 06:33:00,35.0,30.0,30.33,North,11,1.0,4.0,82,0.00,,,0.26,,2013-05-24 10:33:00,
2013-05-24 07:02:00,34.0,29.0,30.35,North,0,1.0,3.0,83,0.00,,,0.23,,2013-05-24 11:02:00,
2013-05-24 07:12:00,34.0,29.0,30.35,North,0,1.0,3.0,83,0.00,,,0.23,,2013-05-24 11:12:00,
2013-05-24 07:22:00,34.0,29.0,30.36,North,0,1.0,3.0,83,0.00,,,0.22,,2013-05-24 11:22:00,
2013-05-24 07:32:00,35.0,30.0,30.36,North,0,2.0,5.0,82,0.00,,,0.22,,2013-05-24 11:32:00,
2013-05-24 07:42:00,35.0,30.0,30.36,North,0,2.0,5.0,82,0.00,,,0.22,,2013-05-24 11:42:00,
2013-05-24 07:52:00,37.0,31.0,30.37,North,0,3.0,7.0,78,0.00,,,0.20,,2013-05-24 11:52:00,
2013-05-24 08:02:00,38.0,31.0,30.37,North,1,3.0,9.0,75,0.00,,,0.20,,2013-05-24 12:02:00,
2013-05-24 08:11:00,38.0,31.0,30.37,North,1,3.0,9.0,75,0.00,,,0.20,,2013-05-24 12:11:00,
2013-05-24 08:22:00,39.0,31.0,30.38,NNE,14,3.0,9.0,72,0.00,,,0.19,,2013-05-24 12:22:00,
2013-05-24 08:32:00,40.0,31.0,30.39,North,355,9.0,11.0,70,0.00,,,0.18,,2013-05-24 12:32:00,
2013-05-24 08:42:00,40.0,31.0,30.39,North,355,9.0,11.0,70,0.00,,,0.18,,2013-05-24 12:42:00,
2013-05-24 08:52:00,40.0,30.0,30.39,North,8,8.0,14.0,66,0.00,,,0.18,,2013-05-24 12:52:00,
2013-05-24 09:02:00,41.0,31.0,30.39,NNE,24,8.0,14.0,66,0.00,,,0.17,,2013-05-24 13:02:00,
2013-05-24 09:11:00,41.0,31.0,30.39,NNE,24,8.0,14.0,66,0.00,,,0.17,,2013-05-24 13:11:00,
2013-05-24 09:21:00,41.0,30.0,30.40,NNE,28,10.0,16.0,65,0.00,,,0.16,,2013-05-24 13:21:00,
2013-05-24 09:32:00,42.0,31.0,30.40,NE,36,8.0,10.0,65,0.00,,,0.15,,2013-05-24 13:32:00,
2013-05-24 09:42:00,42.0,31.0,30.40,NE,36,8.0,10.0,65,0.00,,,0.15,,2013-05-24 13:42:00,
2013-05-24 09:52:00,42.0,31.0,30.41,North,0,7.0,12.0,65,0.00,,,0.15,,2013-05-24 13:52:00,
2013-05-24 10:01:00,43.0,33.0,30.40,NNW,335,6.0,10.0,67,0.00,,,0.14,,2013-05-24 14:01:00,
2013-05-24 10:11:00,43.0,33.0,30.40,NNW,335,6.0,10.0,67,0.00,,,0.14,,2013-05-24 14:11:00,
2013-05-24 10:21:00,43.0,33.0,30.40,NNW,346,2.0,10.0,67,0.00,,,0.14,,2013-05-24 14:21:00,
2013-05-24 10:32:00,44.0,33.0,30.40,NNW,331,2.0,7.0,66,0.00,,,0.13,,2013-05-24 14:32:00,
2013-05-24 10:42:00,44.0,33.0,30.40,NNW,331,2.0,7.0,66,0.00,,,0.13,,2013-05-24 14:42:00,
2013-05-24 10:52:00,44.0,33.0,30.39,North,4,3.0,9.0,66,0.00,,,0.13,,2013-05-24 14:52:00,
2013-05-24 11:02:00,44.0,33.0,30.39,North,356,6.0,10.0,64,0.00,,,0.12,,2013-05-24 15:02:00,
2013-05-24 11:11:00,44.0,33.0,30.39,North,356,6.0,10.0,64,0.00,,,0.12,,2013-05-24 15:11:00,
2013-05-24 11:21:00,45.0,34.0,30.39,NNW,335,6.0,10.0,64,0.00,,,0.12,,2013-05-24 15:21:00,
2013-05-24 11:33:00,45.0,34.0,30.39,North,350,6.0,11.0,64,0.00,,,0.11,,2013-05-24 15:33:00,
2013-05-24 11:43:00,45.0,34.0,30.39,North,350,6.0,11.0,64,0.00,,,0.11,,2013-05-24 15:43:00,
2013-05-24 11:52:00,46.0,35.0,30.40,NW,324,5.0,9.0,64,0.00,,,0.10,,2013-05-24 15:52:00,
2013-05-24 12:03:00,46.0,34.0,30.40,North,354,2.0,11.0,63,0.00,,,0.10,,2013-05-24 16:03:00,
2013-05-24 12:12:00,46.0,34.0,30.40,North,354,2.0,11.0,63,0.00,,,0.10,,2013-05-24 16:12:00,
2013-05-24 12:22:00,45.0,34.0,30.40,NNW,341,6.0,14.0,65,0.00,,,0.09,,2013-05-24 16:22:00,
2013-05-24 12:32:00,46.0,35.0,30.40,North,354,9.0,12.0,66,0.00,,,0.09,,2013-05-24 16:32:00,
2013-05-24 12:42:00,46.0,35.0,30.40,North,354,9.0,12.0,66,0.00,,,0.09,,2013-05-24 16:42:00,
2013-05-24 12:52:00,46.0,35.0,30.40,NNW,341,6.0,11.0,64,0.00,,,0.08,,2013-05-24 16:52:00,
2013-05-24 13:02:00,46.0,35.0,30.41,NNW,335,6.0,11.0,64,0.00,,,0.07,,2013-05-24 17:02:00,
2013-05-24 13:12:00,46.0,35.0,30.41,NNW,335,6.0,11.0,64,0.00,,,0.07,,2013-05-24 17:12:00,
2013-05-24 13:22:00,47.0,36.0,30.41,NNW,335,10.0,10.0,66,0.00,,,0.07,,2013-05-24 17:22:00,
2013-05-24 13:32:00,46.0,34.0,30.40,NNW,346,8.0,11.0,63,0.00,,,0.07,,2013-05-24 17:32:00,
2013-05-24 13:42:00,46.0,34.0,30.40,NNW,346,8.0,11.0,63,0.00,,,0.07,,2013-05-24 17:42:00,
2013-05-24 13:52:00,46.0,34.0,30.40,NNW,346,8.0,11.0,63,0.00,,,0.07,,2013-05-24 17:52:00,
2013-05-24 14:01:00,47.0,34.0,30.40,NNW,327,5.0,12.0,61,0.00,,,0.06,,2013-05-24 18:01:00,
2013-05-24 14:12:00,47.0,34.0,30.40,NNW,327,5.0,12.0,61,0.00,,,0.06,,2013-05-24 18:12:00,
2013-05-24 14:22:00,48.0,36.0,30.41,NNW,343,10.0,11.0,62,0.00,,,0.05,,2013-05-24 18:22:00,
2013-05-24 14:32:00,48.0,35.0,30.41,North,350,5.0,10.0,60,0.00,,,0.05,,2013-05-24 18:32:00,
2013-05-24 14:42:00,48.0,35.0,30.41,North,350,5.0,10.0,60,0.00,,,0.05,,2013-05-24 18:42:00,
2013-05-24 14:52:00,48.0,35.0,30.41,North,350,5.0,10.0,60,0.00,,,0.05,,2013-05-24 18:52:00,
2013-05-24 15:01:00,49.0,34.0,30.40,North,358,3.0,11.0,55,0.00,,,0.04,,2013-05-24 19:01:00,
2013-05-24 15:11:00,49.0,34.0,30.40,North,358,3.0,11.0,55,0.00,,,0.04,,2013-05-24 19:11:00,
2013-05-24 15:21:00,50.0,34.0,30.40,NNW,339,4.0,12.0,53,0.00,,,0.03,,2013-05-24 19:21:00,
2013-05-24 15:32:00,50.0,33.0,30.39,North,352,7.0,14.0,51,0.00,,,0.03,,2013-05-24 19:32:00,
2013-05-24 15:42:00,50.0,33.0,30.39,North,352,7.0,14.0,51,0.00,,,0.03,,2013-05-24 19:42:00,
2013-05-24 15:52:00,50.0,34.0,30.39,NNW,333,8.0,10.0,55,0.00,,,0.03,,2013-05-24 19:52:00,
2013-05-24 16:02:00,50.0,34.0,30.38,NW,319,5.0,12.0,53,0.00,,,0.02,,2013-05-24 20:02:00,
2013-05-24 16:12:00,50.0,34.0,30.38,NW,319,5.0,12.0,53,0.00,,,0.02,,2013-05-24 20:12:00,
2013-05-24 16:22:00,51.0,35.0,30.38,NNW,346,9.0,12.0,55,0.00,,,0.02,,2013-05-24 20:22:00,
2013-05-24 16:32:00,52.0,34.0,30.38,North,355,6.0,11.0,51,0.00,,,0.01,,2013-05-24 20:32:00,
2013-05-24 16:42:00,52.0,34.0,30.38,North,355,6.0,11.0,51,0.00,,,0.01,,2013-05-24 20:42:00,
2013-05-24 16:52:00,51.0,34.0,30.38,NNW,347,8.0,12.0,52,0.00,,,0.01,,2013-05-24 20:52:00,
2013-05-24 17:01:00,51.0,35.0,30.38,NW,321,6.0,12.0,55,0.00,,,0.01,,2013-05-24 21:01:00,
2013-05-24 17:11:00,51.0,35.0,30.38,NW,321,6.0,12.0,55,0.00,,,0.01,,2013-05-24 21:11:00,
2013-05-24 17:21:00,52.0,35.0,30.37,North,2,6.0,12.0,53,0.00,,,0.01,,2013-05-24 21:21:00,
2013-05-24 17:33:00,52.0,35.0,30.37,North,351,7.0,10.0,52,0.00,,,0.01,,2013-05-24 21:33:00,
2013-05-24 17:42:00,52.0,35.0,30.37,North,351,7.0,10.0,52,0.00,,,0.01,,2013-05-24 21:42:00,
2013-05-24 17:53:00,53.0,37.0,30.36,North,358,7.0,11.0,54,0.00,,,0.00,,2013-05-24 21:53:00,
2013-05-24 18:03:00,53.0,37.0,30.36,North,358,7.0,11.0,54,0.00,,,0.00,,2013-05-24 22:03:00,
2013-05-24 18:12:00,53.0,37.0,30.36,North,358,7.0,11.0,54,0.00,,,0.00,,2013-05-24 22:12:00,
2013-05-24 18:22:00,53.0,37.0,30.36,North,357,3.0,10.0,55,0.00,,,0.00,,2013-05-24 22:22:00,
2013-05-24 18:33:00,53.0,37.0,30.36,North,0,3.0,10.0,54,0.00,,,0.00,,2013-05-24 22:33:00,
2013-05-24 18:42:00,53.0,37.0,30.36,North,0,3.0,10.0,54,0.00,,,0.00,,2013-05-24 22:42:00,
2013-05-24 18:52:00,53.0,37.0,30.36,NNW,344,9.0,9.0,54,0.00,,,0.00,,2013-05-24 22:52:00,
2013-05-24 19:02:00,52.0,36.0,30.36,North,354,6.0,10.0,54,0.00,,,0.00,,2013-05-24 23:02:00,
2013-05-24 19:11:00,52.0,36.0,30.36,North,354,6.0,10.0,54,0.00,,,0.00,,2013-05-24 23:11:00,
2013-05-24 19:22:00,52.0,37.0,30.35,North,352,4.0,7.0,56,0.00,,,0.00,,2013-05-24 23:22:00,
2013-05-24 19:32:00,52.0,38.0,30.35,North,6,2.0,7.0,59,0.00,,,0.00,,2013-05-24 23:32:00,
2013-05-24 19:42:00,52.0,38.0,30.35,North,6,2.0,7.0,59,0.00,,,0.00,,2013-05-24 23:42:00,
2013-05-24 19:52:00,52.0,38.0,30.35,North,2,6.0,7.0,58,0.00,,,0.00,,2013-05-24 23:52:00,
2013-05-24 20:01:00,52.0,38.0,30.34,NNE,13,6.0,6.0,59,0.00,,,0.00,,2013-05-25 00:01:00,
2013-05-24 20:12:00,52.0,38.0,30.34,NNE,13,6.0,6.0,59,0.00,,,0.00,,2013-05-25 00:12:00,
2013-05-24 20:22:00,51.0,37.0,30.34,NNE,13,3.0,6.0,59,0.00,,,0.00,,2013-05-25 00:22:00,
2013-05-24 20:32:00,50.0,36.0,30.34,North,353,3.0,6.0,59,0.00,,,0.00,,2013-05-25 00:32:00,
2013-05-24 20:42:00,50.0,36.0,30.34,North,353,3.0,6.0,59,0.00,,,0.00,,2013-05-25 00:42:00,
2013-05-24 20:51:00,48.0,37.0,30.34,North,353,4.0,5.0,66,0.00,,,0.00,,2013-05-25 00:51:00,
2013-05-24 21:01:00,47.0,38.0,30.33,North,358,2.0,4.0,71,0.00,,,0.00,,2013-05-25 01:01:00,
2013-05-24 21:11:00,47.0,38.0,30.33,North,358,2.0,4.0,71,0.00,,,0.00,,2013-05-25 01:11:00,
2013-05-24 21:22:00,46.0,37.0,30.34,North,358,1.0,4.0,71,0.00,,,0.00,,2013-05-25 01:22:00,
2013-05-24 21:32:00,44.0,37.0,30.33,North,358,2.0,3.0,75,0.00,,,0.00,,2013-05-25 01:32:00,
2013-05-24 21:42:00,44.0,37.0,30.33,North,358,2.0,3.0,75,0.00,,,0.00,,2013-05-25 01:42:00,
2013-05-24 21:52:00,44.0,38.0,30.34,North,357,3.0,3.0,78,0.00,,,0.00,,2013-05-25 01:52:00,
2013-05-24 22:02:00,42.0,36.0,30.34,North,357,2.0,4.0,78,0.00,,,0.00,,2013-05-25 02:02:00,
2013-05-24 22:12:00,42.0,36.0,30.34,North,357,2.0,4.0,78,0.00,,,0.00,,2013-05-25 02:12:00,
2013-05-24 22:21:00,42.0,36.0,30.35,North,357,0.0,3.0,80,0.00,,,0.00,,2013-05-25 02:21:00,
2013-05-24 22:32:00,40.0,35.0,30.36,North,357,0.0,2.0,82,0.00,,,0.00,,2013-05-25 02:32:00,
2013-05-24 22:42:00,40.0,35.0,30.36,North,357,0.0,2.0,82,0.00,,,0.00,,2013-05-25 02:42:00,
2013-05-24 22:51:00,40.0,35.0,30.37,North,357,1.0,3.0,83,0.00,,,0.00,,2013-05-25 02:51:00,
2013-05-24 23:02:00,39.0,35.0,30.37,North,357,0.0,2.0,84,0.00,,,0.00,,2013-05-25 03:02:00,
2013-05-24 23:11:00,39.0,35.0,30.37,North,357,0.0,2.0,84,0.00,,,0.00,,2013-05-25 03:11:00,
2013-05-24 23:21:00,38.0,34.0,30.37,North,357,1.0,2.0,87,0.00,,,0.00,,2013-05-25 03:21:00,
2013-05-24 23:32:00,38.0,34.0,30.37,North,357,1.0,2.0,87,0.00,,,0.00,,2013-05-25 03:32:00,
2013-05-24 23:43:00,38.0,34.0,30.37,North,357,1.0,2.0,87,0.00,,,0.00,,2013-05-25 03:43:00,
2013-05-24 23:53:00,38.0,34.0,30.37,North,357,0.0,0.0,85,0.00,,,0.00,,2013-05-25 03:53:00,